Wetbulb
75.84 75.90 75.62 75.38 75.46 76.13 74.65 75.55 75.53 75.49 75.60 74.85 74.85 73.79 73.73 73.91 74.26 74.99 75.46 78.57 77.44 76.92 76.47 77.00 77.02 76.67 76.17 75.84 75.89 75.39 75.52 74.80 75.96 75.52 74.53 74.20 74.03 74.17 74.33 74.55 74.97 74.91 74.83
76.58 75.76 76.03 75.57 75.57 75.24 77.16 76.59 76.23 75.72 75.26 74.83 74.39 74.66 73.57 73.68 74.04 74.68 75.47 76.11 77.84 77.25 76.92 77.15 77.29 77.12 76.66 76.39 76.08 75.51 75.12 74.66 75.40 76.35 76.08 75.68 75.63 75.43 74.59 74.58 74.65 75.03 74.97
78.37 78.13 75.80 75.54 75.46 76.27 77.95 77.20 77.24 77.79 75.75 74.66 74.61 74.80 73.65 73.34 72.54 73.93 74.99 75.69 76.56 77.18 77.31 77.84 77.84 77.93 77.84 77.37 77.05 76.82 76.30 76.08 75.88 76.06 76.34 76.77 76.26 75.81 75.98 75.66 75.00 74.95 75.08
77.98 77.97 75.55 74.86 75.69 76.80 75.62 75.61 75.48 75.25 74.95 75.05 74.62 74.19 74.57 73.78 73.71 73.65 74.56 75.43 75.69 75.70 77.50 77.97 77.82 77.62 77.69 77.67 77.82 77.88 77.29 76.41 76.19 76.09 75.81 75.86 76.59 76.35 76.43 76.18 76.08 75.76 75.43
77.05 77.18 75.46 75.39 78.52 75.07 75.46 74.24 73.81 75.82 74.40 74.63 74.09 74.41 74.58 73.75 73.80 73.15 74.15 75.79 76.32 75.59 75.98 77.44 77.44 77.22 77.40 76.93 77.63 78.03 77.72 77.37 76.76 76.39 76.36 76.21 75.99 75.96 76.05 76.07 76.17 76.05 75.80
76.74 77.22 75.79 77.24 77.68 75.22 74.50 74.63 74.78 75.36 75.33 74.04 73.34 73.35 74.43 74.21 74.42 73.61 73.46 73.74 74.59 75.61 76.66 77.50 77.44 76.98 76.99 77.24 77.24 77.49 77.83 77.59 77.45 77.12 76.81 76.43 76.16 75.85 75.62 75.59 75.54 75.44 75.47
77.82 78.23 76.60 76.50 77.04 76.46 77.09 78.40 78.07 76.19 74.55 74.88 74.84 72.52 74.16 74.50 74.21 74.09 74.39 73.79 74.16 74.85 75.74 76.44 77.48 76.49 76.87 76.71 76.50 76.60 77.57 77.80 77.54 77.27 76.87 76.46 76.20 75.82 75.57 75.54 75.31 75.00 74.98
78.43 78.23 78.37 76.28 74.96 71.84 72.81 75.08 76.18 74.44 75.28 76.11 72.09 71.68 68.30 70.65 73.46 74.38 75.04 74.51 74.26 74.13 73.94 75.08 75.80 77.02 77.06 76.10 77.58 76.41 76.76 77.33 77.68 77.38 76.84 76.21 76.10 75.79 75.56 75.46 74.95 74.74 74.67
78.62 78.82 78.15 77.85 77.82 76.43 73.78 75.19 74.52 72.94 72.97 75.24 75.70 72.23 68.21 66.73 70.04 72.22 74.75 73.50 75.69 73.95 74.20 75.12 76.32 76.89 77.66 76.86 76.88 77.34 76.73 76.09 77.09 77.49 77.34 76.82 75.88 75.36 75.38 75.32 74.99 74.58 74.33
77.45 78.30 78.75 78.66 78.36 76.75 77.29 75.31 76.11 74.16 72.04 69.92 73.72 74.61 74.50 73.03 68.76 67.55 71.49 73.44 75.83 75.46 76.06 74.86 74.53 76.36 77.54 77.20 77.24 76.78 76.05 74.98 76.04 77.29 77.43 77.50 76.79 75.95 75.54 75.43 75.38 75.02 74.46
78.11 77.82 78.76 77.95 78.09 77.75 77.83 77.65 77.24 76.75 75.36 73.43 70.30 70.54 74.26 74.11 74.41 70.00 67.74 69.75 71.98 73.52 74.47 75.84 74.65 74.08 76.28 76.58 76.17 75.86 74.55 74.18 74.76 75.31 76.21 76.82 76.97 76.71 76.54 76.40 76.50 76.39 75.88
69.67 72.97 73.78 75.27 76.97 76.86 76.52 76.39 77.24 76.89 76.39 75.67 74.68 74.37 69.53 70.04 70.88 71.16 69.44 71.28 70.73 72.60 74.08 73.42 75.12 75.41 75.60 75.58 76.18 74.90 75.65 74.44 73.39 73.36 73.90 74.95 75.65 75.84 76.44 77.09 77.07 77.34 77.52
67.63 71.18 74.77 74.39 72.43 74.67 74.89 75.31 75.50 76.23 75.83 75.26 75.60 74.68 74.85 72.03 71.24 72.61 71.67 71.11 69.46 72.77 72.64 74.15 75.61 75.87 75.67 75.96 75.78 75.32 75.67 74.06 72.57 71.77 71.89 72.49 73.12 73.95 74.70 75.37 76.08 76.96 77.54
69.49 73.55 71.82 71.75 71.97 72.83 72.75 74.04 72.12 72.87 74.73 74.78 74.93 75.53 74.53 74.75 75.31 70.85 71.62 71.58 69.56 69.64 72.38 73.41 74.66 75.40 76.34 76.36 76.69 75.34 76.08 73.38 72.05 71.05 70.33 70.38 70.95 71.64 72.17 73.11 73.67 74.25 75.25
69.10 71.06 70.83 70.50 71.10 71.33 71.92 73.19 70.08 72.06 73.18 73.70 74.22 74.78 74.66 74.87 75.20 75.09 72.40 69.94 71.04 68.05 68.97 72.87 72.34 76.06 75.60 75.46 76.69 77.07 77.42 73.77 72.20 70.80 69.57 69.23 69.25 69.51 69.98 70.46 70.77 70.95 71.53
70.11 70.01 70.04 70.25 70.48 71.16 71.43 72.32 70.34 71.15 72.42 71.15 71.71 72.84 73.73 73.68 74.59 74.64 74.61 73.26 71.26 70.01 69.36 72.26 72.89 73.15 74.46 75.03 76.23 78.26 78.29 73.98 71.41 70.75 69.27 68.21 68.31 68.43 68.48 68.64 68.91 69.48 69.73
70.40 70.27 69.90 69.92 70.25 70.42 71.28 71.30 70.96 70.84 70.10 70.41 71.08 71.87 72.17 73.37 73.07 73.67 73.95 74.17 74.25 72.93 66.13 70.61 73.02 74.12 76.92 78.79 76.81 77.64 76.67 77.38 75.64 69.74 69.19 68.37 67.61 67.23 67.51 67.70 67.73 68.08 68.49
69.99 70.18 70.85 71.36 70.14 69.23 69.74 69.67 69.12 69.12 68.56 68.57 69.37 70.14 70.61 71.68 72.73 73.24 73.50 73.51 73.83 74.85 71.58 66.85 68.47 68.57 70.82 76.83 78.59 77.49 76.61 75.29 75.99 72.48 68.99 68.45 67.37 66.35 65.87 65.76 65.53 65.55 65.29
69.31 69.47 70.45 69.59 69.46 69.26 68.44 68.35 68.16 66.89 66.70 67.07 68.25 68.47 69.21 70.13 70.26 71.77 72.51 72.65 73.51 74.13 74.04 70.99 69.89 71.73 72.02 73.01 74.84 74.33 76.72 76.89 76.61 73.95 68.91 68.08 66.80 66.17 65.36 64.67 63.74 62.66 61.86
69.50 69.69 68.95 68.10 69.27 68.28 67.43 67.17 66.24 64.67 63.10 61.50 63.80 66.87 68.04 68.33 69.13 70.80 71.46 72.35 73.08 73.48 73.67 72.28 71.44 72.03 72.57 73.47 71.06 72.54 72.73 74.52 75.11 75.54 73.04 71.58 69.71 67.89 66.36 65.23 64.26 63.33 60.93
68.79 69.31 68.33 67.80 67.61 66.44 64.12 64.42 63.73 61.60 57.84 58.87 60.82 64.54 66.59 67.50 66.87 69.01 70.93 71.71 72.57 72.77 72.74 71.99 70.69 71.11 70.58 70.32 68.33 70.45 71.81 72.99 69.80 74.64 74.39 74.72 74.80 74.51 73.26 66.83 69.42 65.94 62.20
68.55 68.24 67.08 66.56 65.45 63.71 60.64 60.38 60.82 58.38 57.50 57.63 58.14 62.26 64.56 66.07 66.87 65.55 66.03 67.50 71.21 72.81 72.41 71.42 70.02 70.08 70.28 70.88 70.20 69.35 69.67 69.62 69.84 74.42 71.96 72.95 74.70 72.68 75.16 76.11 70.54 67.07 62.40
67.93 67.04 66.30 66.41 65.19 65.02 59.47 58.08 59.12 58.10 57.07 57.90 58.08 61.63 65.22 66.63 66.76 69.68 66.71 65.31 65.65 63.92 67.41 73.19 71.83 71.45 72.51 73.18 72.67 71.53 71.30 72.21 71.70 71.51 70.67 72.56 74.86 73.65 75.37 75.07 68.01 64.71 62.61
67.40 66.44 66.42 66.77 65.38 64.26 58.49 57.01 58.00 57.83 57.28 57.46 57.43 63.00 64.89 67.07 69.29 69.80 70.45 70.48 70.85 71.50 70.48 69.91 72.32 73.27 73.89 74.75 73.79 73.20 72.83 72.69 72.44 69.95 72.62 71.05 72.63 72.30 74.94 75.33 64.72 64.27 62.49
67.64 66.30 66.59 66.47 64.71 64.06 58.19 56.18 56.62 55.35 54.09 54.65 58.56 65.27 67.48 68.74 65.08 61.45 69.76 70.05 70.71 71.15 66.55 63.64 64.56 64.02 63.77 62.58 65.81 72.87 69.98 69.19 68.07 70.87 73.16 72.77 72.31 72.91 72.58 74.19 74.15 63.48 61.80
67.36 64.76 65.93 65.13 61.78 63.28 57.37 55.15 56.05 54.42 54.16 56.16 61.32 65.55 63.61 65.18 60.13 58.30 69.19 70.06 69.29 70.04 72.27 72.48 69.61 66.30 63.88 66.91 61.85 70.23 70.12 66.67 67.48 67.77 71.95 71.06 71.86 71.81 69.10 73.95 74.23 71.97 70.01
MSLP
1017.67 1017.78 1017.85 1017.76 1017.24 1017.12 1017.77 1017.54 1017.60 1017.77 1017.89 1018.42 1018.16 1017.96 1017.77 1017.35 1016.75 1016.73 1017.57 1018.07 1018.32 1018.34 1018.67 1018.93 1019.07 1019.13 1019.33 1019.50 1019.63 1019.79 1019.93 1020.07 1020.16 1020.33 1020.46 1020.57 1020.63 1020.66 1020.73 1020.79 1020.83 1020.98 1021.14
1017.59 1017.38 1017.39 1017.47 1017.30 1017.29 1017.07 1017.45 1017.62 1017.45 1017.47 1017.66 1018.01 1017.64 1017.58 1017.37 1017.03 1016.82 1016.77 1017.48 1017.79 1017.83 1017.99 1018.41 1018.60 1018.68 1018.79 1018.95 1019.16 1019.29 1019.43 1019.57 1019.72 1019.86 1020.04 1020.12 1020.21 1020.30 1020.40 1020.42 1020.46 1020.56 1020.72
1017.51 1017.78 1017.26 1016.94 1016.84 1017.28 1017.41 1017.33 1017.75 1017.73 1017.54 1017.36 1017.72 1017.49 1017.12 1017.04 1016.86 1016.77 1016.84 1017.00 1016.98 1017.29 1017.23 1017.59 1018.00 1018.17 1018.36 1018.47 1018.63 1018.81 1018.98 1019.10 1019.29 1019.41 1019.54 1019.59 1019.71 1019.86 1019.95 1019.99 1020.08 1020.18 1020.28
1017.38 1017.44 1016.99 1016.62 1016.34 1016.48 1016.84 1016.73 1017.12 1017.34 1017.24 1017.11 1017.06 1017.15 1016.76 1016.50 1016.30 1016.35 1016.50 1016.15 1016.11 1015.98 1016.87 1016.83 1016.99 1017.30 1017.66 1017.97 1018.11 1018.24 1018.40 1018.54 1018.73 1018.91 1019.04 1019.08 1019.19 1019.28 1019.41 1019.52 1019.62 1019.69 1019.78
1016.92 1017.09 1016.80 1016.39 1016.26 1016.21 1016.11 1016.44 1016.45 1016.46 1016.12 1016.13 1015.98 1016.20 1016.57 1016.44 1015.96 1015.54 1015.62 1015.70 1015.72 1015.87 1015.71 1016.02 1016.40 1016.64 1016.86 1017.12 1017.47 1017.61 1017.71 1017.86 1018.07 1018.21 1018.36 1018.46 1018.62 1018.74 1018.81 1018.92 1019.06 1019.16 1019.27
1016.45 1016.62 1016.45 1016.41 1016.39 1016.32 1016.01 1015.62 1015.86 1015.78 1015.77 1015.95 1015.99 1015.38 1015.68 1016.02 1015.51 1015.10 1015.07 1015.03 1014.90 1014.97 1015.29 1015.00 1015.70 1016.08 1016.16 1016.12 1016.46 1016.86 1017.05 1017.20 1017.39 1017.51 1017.63 1017.79 1017.96 1018.11 1018.21 1018.31 1018.41 1018.51 1018.57
1016.27 1016.25 1016.62 1016.23 1015.99 1016.16 1015.98 1015.86 1015.68 1016.20 1016.07 1015.84 1015.92 1015.76 1014.89 1014.99 1014.92 1014.34 1014.13 1014.15 1014.10 1014.16 1014.36 1014.34 1014.48 1014.51 1014.49 1015.09 1015.47 1015.78 1016.11 1016.34 1016.58 1016.78 1016.87 1017.01 1017.22 1017.41 1017.53 1017.62 1017.67 1017.77 1017.87
1016.11 1016.23 1016.24 1016.22 1016.55 1016.41 1015.65 1016.66 1015.88 1016.03 1015.80 1015.48 1015.53 1015.70 1015.24 1014.21 1013.65 1013.10 1012.94 1013.01 1013.08 1013.18 1013.33 1013.53 1013.67 1013.98 1014.07 1013.86 1014.57 1014.97 1015.23 1015.45 1015.68 1015.91 1016.09 1016.21 1016.44 1016.65 1016.75 1016.84 1016.89 1016.95 1017.02
1015.40 1015.79 1015.75 1015.60 1015.71 1016.01 1016.23 1015.83 1015.29 1015.45 1015.30 1015.22 1014.75 1014.98 1014.42 1013.16 1012.20 1011.78 1011.62 1011.78 1012.11 1012.51 1012.47 1012.50 1012.67 1012.94 1013.30 1013.48 1013.44 1013.79 1014.26 1014.53 1014.74 1014.92 1015.16 1015.42 1015.66 1015.84 1015.91 1016.01 1016.11 1016.15 1016.15
1014.60 1014.54 1014.72 1014.83 1014.95 1014.88 1014.79 1014.68 1014.48 1014.50 1014.71 1014.99 1014.85 1013.54 1013.84 1013.50 1012.84 1011.97 1011.05 1011.04 1011.49 1012.02 1012.10 1011.96 1011.82 1011.78 1012.14 1012.45 1012.74 1012.91 1013.21 1013.58 1013.80 1014.03 1014.26 1014.59 1014.85 1014.98 1015.11 1015.24 1015.33 1015.36 1015.42
1014.00 1014.21 1013.97 1013.92 1014.12 1014.30 1014.40 1014.30 1014.12 1013.93 1013.65 1013.72 1013.82 1013.85 1012.88 1013.21 1013.45 1013.27 1011.81 1010.78 1010.33 1010.57 1010.92 1011.27 1011.40 1011.21 1011.21 1011.48 1011.78 1012.12 1012.51 1012.74 1012.98 1013.24 1013.45 1013.74 1014.02 1014.17 1014.35 1014.49 1014.60 1014.64 1014.75
1013.66 1013.45 1013.32 1013.60 1013.74 1013.84 1013.95 1013.80 1013.68 1013.57 1013.48 1013.21 1013.04 1013.01 1012.98 1013.03 1012.48 1012.47 1011.88 1011.04 1010.08 1009.34 1009.72 1010.16 1010.33 1010.41 1010.40 1010.53 1010.90 1011.22 1011.47 1011.71 1012.07 1012.37 1012.60 1012.84 1013.15 1013.41 1013.59 1013.74 1013.86 1013.92 1013.99
1013.83 1013.71 1013.97 1014.09 1013.94 1013.77 1013.74 1013.56 1013.17 1013.09 1012.99 1012.78 1012.62 1012.21 1011.95 1012.16 1012.19 1011.43 1010.44 1009.68 1008.99 1008.16 1007.73 1008.00 1008.66 1008.93 1008.99 1009.36 1009.73 1010.19 1010.59 1010.92 1011.28 1011.69 1011.95 1012.09 1012.27 1012.54 1012.84 1012.97 1013.10 1013.21 1013.28
1014.27 1014.16 1014.18 1014.09 1014.00 1013.68 1013.55 1013.31 1012.91 1012.30 1011.85 1011.71 1011.77 1011.72 1011.28 1010.72 1011.01 1010.92 1010.46 1009.73 1008.94 1008.36 1006.54 1006.18 1006.56 1007.07 1007.41 1008.04 1008.54 1009.22 1009.63 1010.06 1010.36 1010.72 1011.11 1011.45 1011.54 1011.75 1011.95 1012.21 1012.38 1012.49 1012.56
1014.40 1014.24 1014.26 1014.10 1013.78 1013.54 1013.30 1013.07 1012.57 1012.08 1011.66 1011.15 1010.71 1010.68 1010.62 1010.10 1009.67 1009.35 1009.96 1009.63 1009.60 1008.47 1006.45 1005.12 1005.30 1006.11 1006.73 1007.09 1007.59 1008.11 1008.64 1009.10 1009.70 1010.03 1010.26 1010.71 1010.89 1011.10 1011.33 1011.51 1011.66 1011.75 1011.91
1014.68 1014.48 1014.28 1013.92 1013.57 1013.26 1012.98 1012.71 1012.16 1011.58 1011.19 1010.76 1010.22 1009.65 1009.25 1009.07 1008.78 1008.19 1008.20 1008.64 1009.02 1007.09 1007.67 1006.43 1005.73 1005.26 1005.66 1006.28 1006.78 1007.30 1007.87 1008.48 1009.06 1009.27 1009.61 1009.92 1010.18 1010.36 1010.54 1010.66 1010.79 1011.01 1011.25
1014.30 1014.09 1013.87 1013.58 1013.21 1012.84 1012.58 1012.31 1011.91 1011.44 1010.96 1010.40 1009.96 1009.28 1008.65 1008.49 1008.10 1007.53 1007.07 1007.01 1007.18 1008.10 1008.10 1005.25 1007.03 1005.49 1005.74 1006.12 1006.27 1006.48 1007.02 1007.66 1007.91 1008.54 1008.77 1009.06 1009.41 1009.63 1009.71 1009.86 1010.04 1010.21 1010.51
1013.91 1013.53 1013.20 1012.86 1012.65 1012.59 1012.42 1012.10 1011.48 1011.06 1010.54 1009.86 1009.09 1008.50 1007.69 1007.28 1006.79 1006.68 1006.32 1005.98 1005.70 1005.89 1007.38 1007.54 1007.03 1006.94 1006.88 1006.11 1005.71 1006.15 1006.17 1006.40 1006.78 1006.85 1007.40 1007.82 1008.21 1008.63 1008.83 1009.13 1009.42 1009.60 1009.85
1013.41 1013.04 1012.80 1012.57 1012.24 1012.02 1011.84 1011.59 1011.11 1010.62 1010.12 1009.31 1008.41 1007.48 1006.67 1006.28 1005.78 1005.41 1005.35 1005.33 1005.36 1005.29 1005.74 1005.92 1005.80 1006.72 1006.41 1007.07 1005.74 1005.64 1005.90 1005.91 1006.09 1006.05 1006.21 1006.57 1007.12 1007.61 1008.07 1008.30 1008.66 1008.95 1009.17
1012.80 1012.51 1012.22 1012.03 1011.67 1011.42 1011.21 1010.68 1010.10 1009.86 1009.59 1008.95 1008.12 1006.72 1005.68 1005.21 1004.73 1004.49 1004.42 1004.42 1004.73 1004.89 1005.35 1005.75 1005.86 1006.29 1006.23 1005.41 1005.77 1006.16 1005.86 1005.52 1006.29 1005.59 1005.10 1004.90 1005.86 1006.61 1007.12 1007.36 1007.75 1008.05 1008.36
1012.40 1012.11 1011.89 1011.64 1011.27 1011.04 1010.43 1010.20 1009.73 1009.11 1008.73 1007.76 1006.83 1005.61 1004.72 1004.05 1003.68 1003.35 1003.40 1003.30 1003.83 1004.17 1004.51 1004.87 1005.05 1005.02 1004.75 1004.45 1004.48 1004.37 1004.07 1005.36 1006.40 1006.39 1004.98 1004.04 1004.28 1005.18 1005.56 1006.34 1006.44 1006.97 1007.52
1012.12 1011.91 1011.72 1011.44 1010.94 1010.50 1010.39 1009.92 1009.27 1008.31 1007.39 1006.46 1005.32 1004.09 1003.36 1002.72 1002.36 1002.24 1002.34 1002.55 1002.79 1003.24 1003.49 1003.88 1003.97 1003.86 1003.77 1003.57 1003.90 1004.03 1003.85 1004.79 1005.68 1004.51 1004.53 1003.24 1002.60 1003.36 1003.74 1003.97 1004.34 1005.27 1006.18
1011.97 1011.62 1011.36 1010.82 1010.47 1010.28 1009.80 1009.28 1008.27 1007.09 1005.92 1004.85 1003.91 1002.76 1001.75 1001.19 1000.98 1000.84 1001.17 1001.59 1002.11 1002.63 1002.84 1003.15 1003.16 1002.96 1002.77 1003.24 1003.89 1004.00 1004.10 1004.09 1004.27 1004.23 1004.11 1002.60 1002.19 1002.08 1002.36 1002.36 1002.59 1003.65 1004.62
1011.83 1011.43 1011.01 1010.39 1010.04 1009.86 1009.44 1008.39 1007.08 1005.48 1004.22 1003.33 1002.59 1001.30 1000.71 1000.05 999.81 999.72 1000.02 1000.37 1000.77 1001.33 1002.14 1002.60 1002.67 1002.67 1002.89 1003.28 1003.67 1003.67 1003.80 1003.80 1003.73 1003.51 1003.59 1002.41 1002.34 1002.80 1001.54 1001.74 1002.15 1002.80 1003.71
1011.78 1011.25 1010.54 1010.07 1010.07 1009.65 1008.83 1007.63 1006.03 1004.65 1003.09 1002.10 1001.22 1000.05 999.28 998.92 998.97 999.47 999.71 999.91 1000.18 1000.24 1000.80 1001.45 1001.95 1002.22 1002.71 1003.15 1003.50 1003.84 1003.83 1003.93 1003.61 1003.30 1002.70 1002.69 1002.02 1002.78 1001.48 1001.03 1001.57 1001.98 1002.80
1011.01 1010.76 1010.20 1010.15 1010.09 1009.45 1008.21 1006.82 1005.29 1004.15 1002.42 1001.02 999.98 999.07 998.75 998.71 998.84 999.39 999.52 999.79 1000.10 999.83 1000.18 1000.47 1001.41 1001.90 1002.33 1002.64 1002.97 1003.27 1003.34 1003.62 1003.38 1003.10 1002.52 1003.01 1002.36 1001.88 1001.10 1000.62 1000.71 1001.87 1002.66
Wind_Speed
5 4 5 6 7 3 4 4 5 3 3 5 7 7 9 10 11 3 3 10 12 13 12 13 13 12 12 12 11 10 10 10 10 11 10 9 10 10 10 10 10 9 10
5 7 7 7 7 7 2 4 5 4 6 5 8 7 9 9 10 8 3 5 14 14 14 15 15 14 14 14 13 13 12 12 12 11 12 12 12 12 12 12 12 11 10
7 8 9 7 7 5 9 4 6 6 6 7 7 8 8 10 10 10 9 7 8 15 17 17 16 15 15 14 14 14 13 13 13 13 12 13 14 14 14 14 13 12 12
9 8 9 9 9 7 7 6 7 8 9 9 7 6 6 9 10 11 10 9 7 8 14 19 20 19 17 16 16 15 15 15 15 15 15 15 14 14 15 15 15 14 13
10 9 10 10 7 9 8 7 8 9 8 6 8 8 6 9 11 11 12 12 12 8 8 18 20 19 19 18 17 18 17 16 16 16 17 17 16 16 15 15 15 16 15
10 9 11 11 9 10 10 10 6 9 8 8 9 10 8 8 11 11 12 12 13 12 13 12 11 11 21 21 20 19 18 18 17 17 17 17 17 16 16 16 16 16 16
10 9 8 11 10 11 11 10 6 8 9 12 6 8 10 10 14 12 12 12 13 12 13 12 8 9 11 22 22 21 21 19 18 18 18 18 17 17 17 17 17 17 17
10 11 10 11 9 1 10 14 11 9 10 10 7 3 5 10 13 15 12 11 14 11 12 14 13 12 11 8 15 21 21 20 19 18 18 17 17 17 18 18 18 18 18
10 11 12 12 12 8 11 13 10 13 10 10 13 7 5 9 9 5 10 11 8 9 12 11 11 13 14 12 11 15 21 20 20 19 19 18 15 16 17 17 18 18 18
10 11 11 11 10 11 9 11 12 13 11 10 11 10 13 12 11 11 9 8 9 9 10 9 10 13 13 11 14 14 12 19 19 19 18 17 15 15 15 16 17 17 17
12 12 13 12 10 8 10 12 13 12 12 10 10 12 10 9 11 11 12 11 10 11 11 11 11 10 11 11 11 11 17 16 19 18 18 17 16 16 15 16 15 16 16
11 10 9 9 10 9 11 11 12 13 12 13 11 9 10 9 12 10 12 13 14 10 11 9 10 10 10 9 14 16 15 17 16 16 17 17 17 17 17 17 17 17 16
11 10 10 9 10 11 12 12 12 12 13 12 13 12 11 11 11 14 13 13 12 13 12 13 13 12 12 12 11 17 18 16 15 15 16 17 17 17 17 17 17 16 16
9 10 11 11 12 12 12 11 12 12 13 12 16 13 12 12 11 13 14 14 13 13 13 13 11 11 9 9 11 12 13 19 17 16 16 16 16 17 17 15 15 15 15
10 11 12 13 13 13 13 12 12 13 13 14 14 14 13 13 13 13 11 11 15 16 16 11 11 12 10 10 11 12 12 12 16 16 15 16 16 15 14 14 13 15 13
11 12 12 13 13 13 13 12 13 13 13 13 13 16 14 14 15 14 12 13 16 15 12 11 11 5 10 11 11 12 11 10 16 16 16 16 16 15 15 14 14 13 13
11 11 12 13 13 13 13 13 15 16 17 17 18 18 19 18 14 14 13 13 13 9 11 11 13 12 3 6 8 10 10 10 11 18 18 18 16 16 15 14 13 14 14
12 12 12 13 13 13 14 15 17 18 19 22 21 21 21 15 18 17 14 17 14 12 10 15 13 16 16 14 10 12 10 12 12 15 22 19 18 18 16 15 14 14 13
13 13 12 14 14 13 14 16 17 19 21 22 24 24 22 21 20 16 16 15 13 12 9 10 11 9 14 16 9 5 13 12 13 16 18 19 18 18 16 16 14 15 15
13 13 11 12 13 14 16 18 17 17 21 21 24 26 23 23 22 20 17 17 15 12 11 10 11 10 10 13 6 7 10 10 10 15 17 15 18 18 18 17 16 17 16
13 13 14 15 14 14 12 18 20 20 20 21 21 23 23 27 29 24 14 16 16 13 10 9 10 10 11 10 10 8 10 8 5 16 12 11 12 12 13 14 15 18 16
12 13 14 15 15 14 20 25 22 20 19 20 18 20 20 27 25 24 24 22 16 14 13 10 11 12 14 11 9 10 11 11 11 12 11 11 9 11 13 13 20 18 20
12 13 13 14 14 17 21 26 32 18 17 19 19 18 17 15 19 20 21 20 18 12 13 12 13 12 7 7 9 11 13 12 10 9 10 12 11 10 9 11 20 23 21
12 12 13 12 12 15 21 28 32 19 15 18 19 19 17 17 17 16 16 17 19 17 15 11 13 13 11 9 10 10 12 12 9 8 14 9 7 8 10 10 16 20 20
10 10 11 13 15 17 23 26 29 19 15 16 16 17 15 15 15 15 14 14 14 14 13 15 16 11 10 11 9 6 9 9 10 10 11 11 8 8 11 9 9 19 20
9 10 12 11 13 17 24 28 29 16 13 10 11 13 15 14 7 9 11 12 12 13 11 10 14 13 12 13 11 13 11 9 10 8 11 10 11 12 9 6 7 11 9
Wind_Direction
244 260 262 273 291 3 279 289 213 233 246 257 279 254 251 272 288 259 211 204 192 188 203 217 221 217 222 228 226 231 236 243 237 233 233 240 243 243 245 252 259 252 246
255 264 227 239 247 271 202 189 258 276 226 211 260 238 255 256 264 271 243 262 193 193 194 213 221 221 224 225 227 227 229 235 240 239 234 233 234 239 243 247 252 255 250
232 275 287 279 272 221 280 263 260 286 249 253 230 274 269 243 252 256 261 229 206 203 195 200 215 220 224 226 228 227 225 229 236 239 242 240 233 236 237 242 248 251 251
243 262 258 252 253 224 238 243 241 239 213 211 221 254 269 251 247 247 240 255 239 255 204 202 204 210 215 228 231 230 226 225 227 235 238 241 239 241 236 237 242 245 245
244 247 260 267 262 258 247 210 246 214 255 263 250 199 226 267 263 248 241 248 248 245 249 199 205 209 210 217 230 233 230 229 228 229 233 237 239 241 239 238 238 241 241
249 249 254 259 269 265 257 251 243 254 263 249 261 287 199 234 249 245 247 251 250 231 238 252 195 217 217 214 216 228 231 232 231 231 232 235 236 238 239 238 239 241 239
261 266 255 274 264 247 267 291 256 250 252 261 218 259 270 219 250 248 243 242 249 241 242 244 231 242 214 209 212 215 223 227 231 235 235 234 233 236 237 237 238 238 239
267 264 259 262 262 251 271 280 268 256 245 251 261 212 263 262 220 233 227 229 239 245 236 235 234 233 253 245 208 216 220 223 226 234 238 237 232 232 236 236 237 236 237
269 268 264 265 265 245 240 249 254 252 253 269 252 214 226 233 256 233 221 229 232 250 241 240 241 221 223 237 261 209 213 213 218 225 233 238 234 230 235 237 239 238 237
274 263 256 269 271 283 281 262 256 254 247 236 263 238 227 271 274 279 251 208 203 222 253 255 253 224 220 222 231 239 213 210 216 222 226 232 234 234 235 237 240 241 241
248 261 256 257 259 266 277 271 268 259 258 254 236 247 268 241 239 256 261 266 231 216 222 214 235 251 239 222 228 226 234 209 212 218 223 228 229 237 239 243 244 245 244
310 299 320 338 329 292 278 282 282 274 266 266 261 245 236 244 241 226 245 253 261 257 216 223 209 216 225 234 217 233 219 214 211 217 217 216 220 234 240 243 245 248 247
315 322 346 323 311 308 302 297 286 277 276 267 257 257 247 242 234 256 233 240 245 228 219 210 209 218 212 210 228 208 219 206 206 214 219 215 217 227 234 238 240 243 246
297 329 307 307 309 303 298 296 289 288 285 263 266 260 257 252 235 241 253 256 244 258 246 219 218 216 214 226 222 202 223 208 209 209 214 218 215 223 228 229 233 237 238
312 311 316 301 301 299 298 299 286 292 292 287 272 257 257 257 252 239 240 241 288 255 243 235 221 218 231 230 216 221 223 198 205 210 211 218 224 224 222 223 228 234 233
296 299 297 294 299 298 296 292 287 283 285 286 285 280 264 255 257 254 239 225 225 260 279 262 251 225 208 216 226 202 219 212 205 208 209 215 222 220 218 219 220 225 223
298 294 294 293 290 293 294 296 292 285 280 276 270 269 264 262 257 256 255 249 243 221 233 255 310 301 262 222 240 200 209 223 230 206 206 209 217 221 219 219 218 219 218
296 290 284 282 291 295 292 294 294 292 290 283 273 266 264 259 253 248 249 253 255 251 216 226 221 260 297 280 225 226 219 226 231 217 208 208 209 214 217 218 218 217 214
291 298 296 298 294 302 303 292 290 290 288 289 284 267 260 258 255 250 242 244 242 244 229 237 245 220 230 259 270 212 241 236 249 253 202 206 209 213 215 218 213 214 214
299 286 296 298 305 309 303 293 297 304 296 285 282 278 266 259 256 250 242 238 236 233 226 225 236 233 231 246 218 249 235 235 249 247 238 201 198 213 216 216 212 212 214
297 313 311 303 311 309 301 320 305 301 288 281 282 267 266 260 254 251 243 235 228 230 225 222 236 237 243 238 246 242 226 211 263 282 243 236 195 206 215 219 224 212 210
323 307 318 307 321 310 321 310 304 295 284 277 278 265 259 259 255 248 234 234 227 219 218 219 228 230 228 230 255 274 280 273 252 250 234 260 233 202 211 204 200 201 199
314 317 314 311 322 322 317 308 300 292 287 277 274 264 259 255 252 245 228 222 223 227 221 223 236 258 249 227 242 236 243 255 247 254 289 228 228 237 238 230 183 188 187
320 325 309 324 323 323 320 309 307 301 282 279 271 258 253 254 248 239 234 227 221 217 217 217 227 232 239 256 256 249 262 269 266 252 245 234 244 262 231 227 170 178 184
310 306 328 328 338 331 324 315 335 320 291 279 270 257 248 244 249 228 230 221 218 214 210 211 230 235 240 242 261 243 246 248 259 252 255 266 260 238 253 218 189 178 180
296 326 320 1 348 337 336 326 327 325 291 276 261 258 260 268 268 224 219 217 210 215 219 216 224 228 229 233 224 239 243 251 235 253 249 248 249 240 259 246 220 173 185